WUK70 EPLB-EGGW

Flight info

Callsign WUK70
Flight time N/A
Altitude 34000
Route ARGIX T709 KOTEK DCT LASIS DCT GOBAX DCT ZUCKA DCT NOGRO M40 RINIS
Aircraft A321/M-SDE3FGHIRWY/LB1

Departure

Time 2026-04-28 17:49
Airport Lublin Airport (EPLB)

Arrival

Time N/A
Airport London Luton Airport (EGGW)
Time Latitude Longitude Altitude Speed Heading
2026-04-28 17:30 51.23753 22.71535 642 ft 0 kts 349°
2026-04-28 17:44 51.23755 22.71534 640 ft 1 kts 343°
2026-04-28 17:44 51.23762 22.71514 642 ft 4 kts 282°
2026-04-28 17:44 51.23793 22.71444 640 ft 12 kts 326°
2026-04-28 17:44 51.23876 22.71407 640 ft 5 kts 349°
2026-04-28 17:45 51.23894 22.71401 638 ft 0 kts 348°
2026-04-28 17:45 51.23920 22.71392 641 ft 9 kts 348°
2026-04-28 17:45 51.23993 22.71328 641 ft 15 kts 302°
2026-04-28 17:45 51.23991 22.71129 640 ft 22 kts 260°
2026-04-28 17:46 51.23952 22.70842 641 ft 30 kts 257°
2026-04-28 17:46 51.23895 22.70476 645 ft 29 kts 256°
2026-04-28 17:46 51.23844 22.70139 639 ft 27 kts 256°
2026-04-28 17:46 51.23791 22.69829 643 ft 32 kts 253°
2026-04-28 17:47 51.23755 22.69635 641 ft 7 kts 294°
2026-04-28 17:47 51.23775 22.69642 641 ft 5 kts 47°
2026-04-28 17:47 51.23782 22.69684 640 ft 0 kts 77°
2026-04-28 17:48 51.23795 22.69786 641 ft 42 kts 78°
2026-04-28 17:48 51.23929 22.70739 641 ft 129 kts 77°
2026-04-28 17:49 51.24175 22.72490 804 ft 181 kts 77°
2026-04-28 17:49 51.24467 22.74439 1679 ft 184 kts 80°
2026-04-28 17:49 51.24328 22.76527 2062 ft 200 kts 116°
2026-04-28 17:49 51.23360 22.78203 2321 ft 222 kts 150°
2026-04-28 17:50 51.21819 22.78902 2676 ft 244 kts 182°
2026-04-28 17:50 51.20173 22.78053 3169 ft 258 kts 213°
2026-04-28 17:50 51.18669 22.76439 3938 ft 263 kts 214°
2026-04-28 17:50 51.17152 22.74781 4767 ft 266 kts 214°
2026-04-28 17:51 51.15617 22.73102 5577 ft 269 kts 214°
2026-04-28 17:51 51.14061 22.71405 6382 ft 273 kts 214°
2026-04-28 17:51 51.12483 22.69693 7168 ft 276 kts 214°
2026-04-28 17:51 51.10886 22.67967 7947 ft 279 kts 214°
2026-04-28 17:52 51.09254 22.66252 8717 ft 282 kts 213°
2026-04-28 17:52 51.07593 22.64547 9470 ft 286 kts 213°
2026-04-28 17:52 51.04126 22.61017 10392 ft 315 kts 213°
2026-04-28 17:53 51.02235 22.59072 10805 ft 329 kts 215°
2026-04-28 17:53 51.00537 22.56599 11444 ft 334 kts 231°
2026-04-28 17:53 50.99299 22.53467 12125 ft 338 kts 246°
2026-04-28 17:53 50.98627 22.49875 12801 ft 342 kts 261°
2026-04-28 17:54 50.98573 22.46093 13457 ft 346 kts 275°
2026-04-28 17:54 50.98801 22.42273 14119 ft 349 kts 275°
2026-04-28 17:54 50.99024 22.38420 14760 ft 352 kts 275°
2026-04-28 17:54 50.99246 22.34527 15390 ft 356 kts 275°
2026-04-28 17:55 50.99469 22.30595 16017 ft 359 kts 275°
2026-04-28 17:55 50.99694 22.26627 16637 ft 363 kts 275°
2026-04-28 17:55 50.99917 22.22624 17243 ft 366 kts 275°
2026-04-28 17:55 51.00140 22.18579 17833 ft 369 kts 275°
2026-04-28 17:56 51.00273 22.14493 18396 ft 372 kts 266°
2026-04-28 17:56 50.99798 22.10449 18937 ft 375 kts 250°
2026-04-28 17:56 50.98638 22.06738 19475 ft 378 kts 236°
2026-04-28 17:56 50.97161 22.03332 20015 ft 381 kts 235°
2026-04-28 17:57 50.95644 21.99861 20570 ft 384 kts 235°
2026-04-28 17:57 50.94115 21.96364 21092 ft 387 kts 235°
2026-04-28 17:57 50.92581 21.92834 21616 ft 391 kts 235°
2026-04-28 17:57 50.91038 21.89273 22118 ft 394 kts 235°
2026-04-28 17:58 50.89481 21.85677 22625 ft 397 kts 235°
2026-04-28 17:58 50.87913 21.82062 23116 ft 400 kts 235°
2026-04-28 17:58 50.86333 21.78424 23588 ft 403 kts 235°
2026-04-28 17:58 50.84738 21.74755 24048 ft 406 kts 235°
2026-04-28 17:59 50.83134 21.71070 24497 ft 408 kts 235°
2026-04-28 17:59 50.81519 21.67350 24918 ft 411 kts 236°
2026-04-28 17:59 50.79899 21.63605 25327 ft 414 kts 236°
2026-04-28 17:59 50.78272 21.59841 25735 ft 417 kts 236°
2026-04-28 18:00 50.76630 21.56048 26130 ft 419 kts 235°
2026-04-28 18:00 50.74978 21.52239 26516 ft 422 kts 235°
2026-04-28 18:00 50.73314 21.48405 26894 ft 424 kts 235°
2026-04-28 18:00 50.71639 21.44552 27256 ft 427 kts 235°
2026-04-28 18:01 50.69957 21.40681 27614 ft 429 kts 235°
2026-04-28 18:01 50.68266 21.36793 27966 ft 431 kts 235°
2026-04-28 18:01 50.66559 21.32883 28310 ft 434 kts 235°
2026-04-28 18:01 50.64839 21.28956 28648 ft 436 kts 235°
2026-04-28 18:02 50.63107 21.25014 28979 ft 438 kts 235°
2026-04-28 18:02 50.61365 21.21051 29303 ft 441 kts 235°
2026-04-28 18:02 50.59828 21.16874 29605 ft 443 kts 246°
2026-04-28 18:02 50.58836 21.12279 29901 ft 445 kts 257°
2026-04-28 18:03 50.58441 21.07441 30189 ft 447 kts 269°
2026-04-28 18:03 50.58643 21.02556 30466 ft 450 kts 277°
2026-04-28 18:03 50.59047 20.97663 30746 ft 452 kts 277°
2026-04-28 18:03 50.59451 20.92750 31027 ft 454 kts 277°
2026-04-28 18:04 50.59853 20.87805 31308 ft 456 kts 277°
2026-04-28 18:04 50.60254 20.82838 31601 ft 458 kts 277°
2026-04-28 18:04 50.60654 20.77882 32006 ft 456 kts 277°
2026-04-28 18:04 50.61051 20.72932 32403 ft 455 kts 277°
2026-04-28 18:05 50.61435 20.68053 32777 ft 454 kts 277°